• Join FlightAware (Why Join?)
  • Login
  • US Flag GB Flag 
10:59 EDT


 

Airport Tracker/Info


-or-


 

Live Flight TrackerFlight Track Log ✈ UAL4274 ✈ 18-Apr-2013 ✈ KLIT - KIAH

Flight Track Log - Related Links

Times and Time Zones

All times are in EDT time to prevent confusion due to time zone crossing. See the UAL4274 flight status page for this flight to view local times or setup timezone preferences in your user account.

Time Position Orientation Groundspeed Altitude Reporting Facility
EDT Latitude Longitude Course Direction KTS MPH feet Rate Location/Type
09:08 34.7133 -92.2519 146° Southeast 158 182 1,000  Level Memphis Center
09:09 34.6572 -92.2508 179° South 169 194 4,000 2,100 Climbing Memphis Center
09:10 34.6094 -92.2319 162° South 200 230 5,700 1,980 Climbing Memphis Center
09:11 34.4255 -92.4363 190° South  Level Estimated
09:11 34.5450 -92.2128 166° South 222 255 8,100  Level Memphis Center
09:12 34.3494 -92.4890 193° South  Level Estimated
09:12 34.4803 -92.2167 183° South 235 270 9,800  Level Memphis Center
09:13 34.2769 -92.4295 146° Southeast  Level FlightAware Approximate
09:13 34.4092 -92.2325 190° South 244 281 10,700  Level Memphis Center
09:14 34.3233 -92.2508 190° South 280 322 11,400 900 Climbing Memphis Center
09:15 34.2333 -92.2639 187° South 313 360 12,600 1,200 Climbing Memphis Center
09:16 34.1392 -92.2819 189° South 337 388 13,800 1,200 Climbing Memphis Center
09:17 34.0533 -92.3000 190° South 343 395 15,000 1,200 Climbing Memphis Center
09:18 33.9611 -92.3206 190° South 343 395 16,200 1,200 Climbing Memphis Center
09:19 33.8628 -92.3358 187° South 354 407 17,400 1,320 Climbing Memphis Center
09:20 33.7708 -92.3514 188° South 353 406 18,900 1,320 Climbing Fort Worth Center
09:21 33.6650 -92.3700 188° South 347 399 20,100 1,200 Climbing Fort Worth Center
09:22 33.5697 -92.3878 189° South 353 406 21,300 1,140 Climbing Fort Worth Center
09:23 33.4706 -92.4086 190° South 358 412 22,400 1,080 Climbing Fort Worth Center
09:24 33.3711 -92.4242 187° South 363 418 23,500 1,020 Climbing Fort Worth Center
09:25 33.2717 -92.4447 190° South 369 425 24,500 1,020 Climbing Fort Worth Center
09:26 33.1658 -92.4606 187° South 369 425 25,600 720 Climbing Fort Worth Center
09:27 33.0622 -92.4786 188° South 369 425 26,000 180 Climbing Fort Worth Center
09:28 32.9525 -92.4994 189° South 384 442 26,000  Level Fort Worth Center
09:29 32.8406 -92.5206 189° South 402 463 26,000  Level Fort Worth Center
09:30 32.7203 -92.5394 188° South 428 493 26,000  Level Fort Worth Center
09:31 32.6000 -92.5608 189° South 439 505 26,000  Level Fort Worth Center
09:33 32.3914 -92.6028 190° South 441 507 26,000  Level Houston Center
09:34 32.2444 -92.6283 188° South 445 512 26,000  Level Houston Center
09:35 32.1225 -92.6500 189° South 445 512 26,000  Level Houston Center
09:36 32.0000 -92.6731 189° South 447 514 26,000  Level Houston Center
09:37 31.9008 -92.7486 213° Southwest 433 498 26,000  Level Houston Center
09:38 31.8094 -92.8367 219° Southwest 428 493 26,000  Level Houston Center
09:39 31.7000 -92.9425 219° Southwest 427 491 26,000  Level Houston Center
09:40 31.6089 -93.0311 220° Southwest 426 490 26,000  Level Houston Center
09:41 31.5183 -93.1172 219° Southwest 424 488 26,000  Level Houston Center
09:42 31.4278 -93.2031 219° Southwest 420 483 26,000  Level Houston Center
09:43 31.3375 -93.2894 219° Southwest 420 483 26,000  Level Houston Center
09:44 31.2292 -93.3914 219° Southwest 419 482 26,000  Level Houston Center
09:45 31.1397 -93.4758 219° Southwest 415 478 26,000  Level Houston Center
09:46 31.0514 -93.5606 219° Southwest 414 476 26,000  Level Houston Center
09:47 30.9636 -93.6439 219° Southwest 411 473 26,000  Level Houston Center
09:48 30.8747 -93.7281 219° Southwest 410 472 26,000 -240 Level Houston Center
09:49 30.7667 -93.8306 219° Southwest 413 475 25,600 -1,080 Descending Houston Center
09:50 30.7017 -93.8919 219° Southwest 413 475 24,100 -2,040 Descending Houston Center
09:50 30.6775 -93.9139 218° Southwest 409 471 23,500 -2,100 Descending Houston Center
09:51 30.6250 -93.9656 220° Southwest 407 468 22,200 -1,980 Descending Houston Center
09:51 30.5900 -93.9961 217° Southwest 404 465 21,500 -1,980 Descending Houston Center
09:52 30.5067 -94.0800 221° Southwest 397 457 19,400 -2,280 Descending Houston Center
09:53 30.4661 -94.1619 240° Southwest 373 429 17,600 -2,040 Descending Houston Center
09:53 30.4542 -94.1853 239° Southwest 373 429 17,300 -1,740 Descending Houston Center
09:54 30.4056 -94.2869 241° Southwest 362 417 15,200 -2,340 Descending Houston Center
09:55 30.3719 -94.3561 241° Southwest 357 411 13,700 -2,040 Descending Houston Center
09:55 30.3569 -94.3875 241° Southwest 356 410 13,100 -1,980 Descending Houston Center
09:56 30.2986 -94.5075 241° Southwest 356 410 10,700 -2,160 Descending Houston Center
09:57 30.2794 -94.5475 241° Southwest 348 400 10,000 -720 Descending Houston Center
09:57 30.2508 -94.6044 240° Southwest 344 396 10,000  Level Houston Center
09:58 30.2267 -94.6536 240° Southwest 336 387 10,000  Level Houston Center
09:59 30.2042 -94.6981 240° Southwest 339 390 10,000  Level Houston Center
09:59 30.1808 -94.7464 241° Southwest 343 395 10,000 60 Level Houston Center
10:00 30.1575 -94.7944 241° Southwest 340 391 10,100  Climbing Houston Center
10:00 30.1336 -94.8444 241° Southwest 345 397 10,000  Descending Houston Center
10:01 30.1111 -94.8917 241° Southwest 345 397 10,100  Climbing Houston Center
10:02 30.1064 -94.9939 267° West 320 368 10,000 -660 Descending Houston Center
10:02 30.1058 -95.0411 269° West 263 303 9,200 -1,260 Descending Houston Center
10:03 30.1064 -95.0789 271° West 282 325 8,700 -1,440 Descending Houston Center
10:03 30.1047 -95.1186 267° West 258 297 7,900 -1,800 Descending Houston Center
10:04 30.1067 -95.1747 272° West 260 299 6,900 -1,560 Descending Houston Center
10:04 30.1067 -95.2078 270° West 251 289 6,200 -780 Descending Houston Center
10:05 30.1072 -95.2556 271° West 254 292 6,100 -240 Descending Houston Center
10:05 30.1058 -95.2900 267° West 255 293 6,000  Descending Houston Center
10:06 30.1072 -95.3367 272° West 253 291 6,100  Climbing Houston Center
10:06 30.1072 -95.3742 270° West 255 293 6,000 -600 Descending Houston Center
10:07 30.1072 -95.4186 270° West 256 295 5,500 -1,320 Descending Houston Center
10:07 30.1064 -95.4564 269° West 245 282 4,700 -1,800 Descending Houston Center
10:08 30.1072 -95.4956 271° West 247 284 3,700 -960 Descending Houston Center
10:09 30.1069 -95.5861 270° West 241 277 3,000 -360 Descending Houston Center
10:10 30.1067 -95.6689 270° West 225 259 3,000  Level Houston Center
10:11 30.1006 -95.7222 262° West 224 258 3,000  Level Houston Center
10:12 30.0344 -95.7328 188° South 191 220 3,000 -60 Level Houston Center
10:13 30.0114 -95.6928 124° Southeast 206 237 2,900  Descending Houston Center
10:14 30.0061 -95.6086 94° East 220 253 3,000 60 Climbing Houston Center